Regional Weather Roundup
Issued by NWS Sterling, VA

Home | Current Version | Previous Version | Text Only | Print | Product List | Glossary On
Versions: 1 2 3 4 5 6 7 8 9 10 11 12 13 14 15 16 17 18 19 20 21 22 23 24 25 26 27 28 29 30 31 32 33 34 35 36 37 38 39 40 41 42 43 44 45 46 47 48 49 50
000
ASUS41 KLWX 221510
RWRLWX

REGIONAL WEATHER ROUNDUP
NATIONAL WEATHER SERVICE BALTIMORE MD/WASHINGTON DC
1100 AM EDT MON SEP 22 2014

Note: "FAIR" indicates few or no clouds below 12,000 feet
with no significant weather and/or obstructions to visibility.
 TC=TEMPERATURE CELSIUS

 * =Non NWS site. Station does not report precipitation (e.g. rain,
    snow, etc.), thunder, or fog.

DCZ001-MDZ009-015-VAZ040>042-051-053>054-221600-
WASHINGTON METRO

CITY           SKY/WX    TMP DP  RH WIND       PRES   REMARKS
WASHINGTON NAT MOSUNNY   71  46  40 NW22G29   30.02R
DULLES         MOSUNNY   65  47  52 NW21G31   30.03R
ANDREWS AFB    MOSUNNY   69  48  46 NW16G25   30.02R
QUANTICO       MOSUNNY   70  47  43 N17G26    30.04R
COLLEGE PARK*  MOSUNNY   68  46  45 NW13G24   30.02R
LEESBURG*      SUNNY     66  48  52 N21G30    30.05R
MANASSAS*      PTSUNNY   68  50  52 NW18G26   30.04R
GAITHERSBURG*  PTSUNNY   64  46  52 NW17G24   30.06R

$$

MDZ006>007-011-014-221600-
BALTIMORE METRO

CITY           SKY/WX    TMP DP  RH WIND       PRES   REMARKS
BWI AIRPORT    MOSUNNY   67  46  47 NW18G26   30.00R
MD SCIENCE CTR   N/A     66  45  46 MISG      30.00R
ANNAPOLIS      SUNNY     67  49  52 NW16G26   30.00R
FORT MEADE*    MOSUNNY   68  48  49 NW12G23   30.03R

$$

MDZ012-015-019>023-221600-
MARYLAND EASTERN SHORE

CITY           SKY/WX    TMP DP  RH WIND       PRES   REMARKS
OCEAN CITY     SUNNY     73  51  46 W12G18    29.96S
SALISBURY      SUNNY     73  49  42 NW15G21   29.98R
BAY BRIDGE AP*   N/A     68  48  49 NW17G24   29.99S
CAMBRIDGE*     SUNNY     72  50  46 NW12G18   29.99R
EASTON*        MOSUNNY   72  52  49 NW16G22   30.02R

$$

MDZ017>025-221600-
SOUTHERN MARYLAND

CITY           SKY/WX    TMP DP  RH WIND       PRES   REMARKS
PATUXENT RIVER MOSUNNY   72  48  42 NW18      30.00R
ST INIGOES     SUNNY     72  49  44 NW8       30.00R
LEONARDTOWN*   SUNNY     70  46  43 NW9G16    30.02R

$$

MDZ003>005-221600-
NORTH CENTRAL MARYLAND

CITY           SKY/WX    TMP DP  RH WIND       PRES   REMARKS
FREDERICK*     MOSUNNY   70  48  46 NW12G17   30.06R
HAGERSTOWN APT CLOUDY    61  46  57 W15       30.04R
WESTMINSTER*   PTSUNNY   63  46  55 W15G21    30.02R

$$

MDZ501>502-221600-
WESTERN MARYLAND

CITY           SKY/WX    TMP DP  RH WIND       PRES   REMARKS
OAKLAND*       CLOUDY    45 N/A N/A NW8       30.11S
CUMBERLAND*    CLOUDY    64  41  42 NW7G18    30.13R

$$

VAZ025>031-221600-
SHENANDOAH VALLEY

CITY           SKY/WX    TMP DP  RH WIND       PRES   REMARKS
WINCHESTER*    PTSUNNY   63  43  48 NW10G25   30.07R
STAUNTON*      PTSUNNY   65  47  51 NW7       30.10R

$$

WVZ021-048>050-054>055-221600-
EASTERN WEST VIRGINIA PANHANDLE

CITY           SKY/WX    TMP DP  RH WIND       PRES   REMARKS
MARTINSBURG    CLOUDY    63  43  48 NW12      30.07R
PETERSBURG*    CLOUDY    59  43  54 NW7       30.12R

$$

VAZ036>039-050-221600-
CENTRAL FOOTHILLS

CITY           SKY/WX    TMP DP  RH WIND       PRES   REMARKS
CHARLOTTESVILL MOSUNNY   70  50  49 N7        30.06R
ORANGE*        MOSUNNY   68  46  45 W12G17    30.07R

$$

VAZ055>057-221600-
NORTH AND CENTRAL PIEDMONT

CITY           SKY/WX    TMP DP  RH WIND       PRES   REMARKS
FREDERICKSBRG* PTSUNNY   71  51  49 NW12G20   30.03R
STAFFORD*      MOSUNNY   69  48  46 NW15G23   30.08R

$$

NCZ024-NYZ072-PAZ021-071-VAZ022-071-221600-
OTHER REGIONAL OBSERVATIONS

CITY           SKY/WX    TMP DP  RH WIND       PRES   REMARKS
NEW YORK CITY  MOSUNNY   68  48  48 VRB7G20   29.90R
PHILADELPHIA   MOSUNNY   68  49  50 NW15G24   29.94R
PITTSBURGH     PTSUNNY   56  42  59 NW14      30.13R
ROANOKE        MOSUNNY   65  47  52 NW15      30.13R
RICHMOND       MOSUNNY   76  46  34 N13       30.02R
RALEIGH        MOSUNNY   71  50  47 VRB7      30.07R

$$

ANZ530>537-221600-
MARINE OBSERVATIONS

STATION/POSITION TIME  TEMP    WIND        PRES
                       AIR SEA DIR/SP/G
                 (UTC) (F)     (DEG/KT/KT) (MB)
THOMAS PT LIGHT  1500   66 73  310/ 19/ 21 1016.4R
BALT KEY BRIDGE  1500   65     290/ 22/ 26 1015.7R
COVE POINT       1500   67     340/ 20/ 24 1015.6R
LEWISETTA        1500   69 74  320/ 13/ 16 1015.9R
SOLOMONS ISLAND  1500      75                N/A
PINEY POINT      1500          330/ 15/ 16   N/A

$$




USA.gov is the U.S. government's official web portal to all federal, state and local government web resources and services.